Regional Weather Roundup
Issued by NWS Upton, NY

Current Version | Previous Version | Graphics & Text | Print | Product List | Glossary Off
Versions: 1 2 3 4 5 6 7 8 9 10 11 12 13 14 15 16 17 18 19 20 21 22 23 24 25 26 27 28 29 30 31 32 33 34 35 36 37 38 39 40 41 42 43 44 45 46 47 48 49 50

470
ASUS41 KOKX 290404
RWROKX

REGIONAL WEATHER ROUNDUP
NATIONAL WEATHER SERVICE NEW YORK NY
1200 AM EDT FRI APR 29 2016

NOTE: "FAIR" INDICATES FEW OR NO CLOUDS BELOW 12,000 FEET WITH NO
SIGNIFICANT WEATHER AND/OR OBSTRUCTIONS TO VISIBILITY.

NYZ071-072-176-178-NJZ106-104-290500-
NEW YORK CITY METRO AREA


CITY           SKY/WX    TMP DP  RH WIND       PRES   REMARKS
CENTRAL PARK   CLOUDY    49  36  61 CALM      30.07F
LAGUARDIA APRT CLOUDY    49  38  65 VRB3      30.05F
KENNEDY INTL   CLOUDY    49  35  58 SE3       30.07F
NEWARK/LIBERTY CLOUDY    48  38  68 CALM      30.06F
BRNX BOT. GARD   N/A     48  34  57 E1        30.07R
TETERBORO      CLOUDY    49  36  61 CALM      30.05F
$$

NYZ177-179-078>081-290500-
LONG ISLAND NEW YORK

CITY           SKY/WX    TMP DP  RH WIND       PRES   REMARKS
FARMINGDALE    CLOUDY    49  35  58 SE3       30.06S
ISLIP          CLOUDY    48  37  65 E7        30.06F
SHIRLEY        CLOUDY    48  37  65 CALM      30.07S
RIVERHEAD        N/A     48  39  71 SE1       30.07S
WESTHAMPTON    CLOUDY    45  36  70 VRB5      30.08R
EAST HAMPTON   CLOUDY    46  36  68 SE3       30.07F
MONTAUK POINT    N/A     47  35  63 CALM      30.09F
$$

NYZ052-065-067-290500-
HUDSON VALLEY

CITY           SKY/WX    TMP DP  RH WIND       PRES   REMARKS
WHITE PLAINS   DRIZZLE   47  33  58 CALM      30.05S
NEWBURGH       CLOUDY    48  41  76 CALM      30.05F
MONTGOMERY     CLOUDY    48  42  80 CALM      30.04S
POUGHKEEPSIE   CLOUDY    51  40  65 S5        30.04S
ALBANY         MOCLDY    41  18  39 N14       30.08S
$$

NJZ001-105-106-008-010-013-015-019>022-104-290500-
NEW JERSEY

CITY           SKY/WX    TMP DP  RH WIND       PRES   REMARKS
NEWARK/LIBERTY CLOUDY    48  38  68 CALM      30.06F
TETERBORO      CLOUDY    49  36  61 CALM      30.05F
CALDWELL       CLOUDY    48  39  71 CALM      30.06F
MORRISTOWN     CLOUDY    46  39  76 CALM      30.06S
SOMERVILLE     CLOUDY    45  39  79 CALM      30.05S
SUSSEX         CLOUDY    47  44  90 CALM      30.05S
ANDOVER          N/A     46  41  82 SW3       30.05R
TRENTON        CLOUDY    44  41  89 CALM      30.04F
MILLVILLE      CLOUDY    46  43  89 NE9       30.03S
ATLANTIC CITY  CLOUDY    46  45  96 NE6       30.04F FOG
WRIGHTSTOWN    CLOUDY    43  42  95 NE5       30.03R
TOMS RIVER     CLOUDY    43  37  81 NE5       30.06S
BELMAR         CLOUDY    43  41  93 CALM      30.06S
$$

PAZ047>061-062-071-290500-
EASTERN PENNSYLVANIA

CITY           SKY/WX    TMP DP  RH WIND       PRES   REMARKS
PHILADELPHIA   CLOUDY    45  41  86 NE6       30.06F
ALLENTOWN      CLOUDY    46  41  82 CALM      30.05S
SCRANTON       CLOUDY    45  43  93 CALM      30.02F
$$

CTZ002-004>006-009-010-012-RIZ004-006-007-MAZ004-011-015-290500-
SOUTHERN NEW ENGLAND
 IN CT

CITY           SKY/WX    TMP DP  RH WIND       PRES   REMARKS
BRADLEY INTL   CLOUDY    47  36  65 S13       30.06R
HARTFORD       CLOUDY    48  38  68 S8        30.08R
DANBURY        CLOUDY    46  38  73 CALM      30.06F
WTRBRY/OXFORD    N/A     45  37  76 S3        30.07R
BRIDGEPORT     CLOUDY    50  37  61 SE7       30.06F
MERIDEN        LGT RAIN  46  40  79 CALM      30.07S
NEW HAVEN      CLOUDY    48  37  65 SE8       30.06F
CHESTER        CLOUDY    45  41  87 CALM      30.07R
GROTON         CLOUDY    46  40  79 SE6       30.08F
WILLIMANTIC    CLOUDY    47  36  65 S6        30.08S

 IN RI

CITY           SKY/WX    TMP DP  RH WIND       PRES   REMARKS
PROVIDENCE     CLOUDY    46  34  62 S7        30.10R
BLOCK ISLAND   CLOUDY    45  36  70 SE7       30.09S
WESTERLY       CLOUDY    47  33  58 E3        30.09F

 IN MA

CITY           SKY/WX    TMP DP  RH WIND       PRES   REMARKS
BOSTON         CLOUDY    46  34  62 S9        30.11R
WORCESTER      CLOUDY    43  29  57 S3        30.07R
WESTFIELD      CLOUDY    48  36  63 SE5       30.05S
PROVINCETOWN   CLOUDY    44  35  70 S3        30.13S
NANTUCKET      CLOUDY    46  33  60 E6        30.11S
$$

ANZ330-335-338-340-345-350-353-355-290500-
COASTAL MARINE OBSERVATIONS


STATION/POSITION TIME  SKY/WX   TEMP    WIND        PRES    VSBY  WAVE
                                AIR SEA DIR/SP/G                  HT/PER
                 (UTC)          (F)     (DEG/KT/KT) (MB)    (MI)  (FT/S)
NY HARB ENTRANCE NOT AVBL
20S FIRE ISLAND  NOT AVBL
GREAT SOUTH BAY  0300            49 58  140/  6/ 10   N/A
23 SSW MONTAUK P NOT AVBL
15 E BARNEGAT LI 0322               51                N/A           3/ 6
HUDSON CANYON    NOT AVBL
KINGS POINT      0300            49 53              1017.8
EXECUTION ROCKS  NOT AVBL
CENTRAL LI SOUND 0300            48     110/  6/  8   N/A           0
EASTERN LI SOUND 0300            47 48  120/  8/ 10   N/A
ROBBINS REEF     0306            48     180/  5/  7 1017.3
$$


>>>>>>>>>>>>>>>>>>>>>>>>>>>> KEY <<<<<<<<<<<<<<<<<<<<<<<<<<<
>                                                          <
>     SKY/WX - SKY CONDITION/PRESENT WEATHER               <
>     TMP    - TEMPERATURE IN FAHRENHEIT                   <
>     DP     - DEWPOINT IN FAHRENHEIT                      <
>     RH     - RELATIVE HUMIDITY IN PERCENT                <
>     WIND   - DIRECTION AND SPEED IN MPH                  <
>     PRES   - MEAN SEA LEVEL PRESSURE IN INCHES OF HG     <
>     WCI    - WIND CHILL INDEX                            <
>     VSB    - VISIBILITY IN MILES                         <
>     HX     - HEAT INDEX                                  <
>     TC     - TEMPERATURE IN CELSIUS                      <
>     VRB    - VARIABLE WIND DIRECTION                     <
>                                                          <
>>>>>>>>>>>>>>>>>>>>>>>>>>>> KEY <<<<<<<<<<<<<<<<<<<<<<<<<<<






USA.gov is the U.S. government's official web portal to all federal, state and local government web resources and services.